When you browse on this site, cookies collect data to enhance your experience and personalize the content and advertising you see.
Visit our Privacy Policy to learn more. By continuing to use the site, you agree to this use of cookies and data.
  • In Austria
  • List of Countries
  • For 7 days
  • Water Temperature
  • Weather Map
  • News
  • Weather Widgets
  • user-avatar
    Login

    Hourly Weather Andora

    Today, 15 December, Sunday

    Time Temperature Precipitation Wind Pressure Humidity
    00:00 +2°C° 0 mm 1 mps 619 mmHg 85%
    01:00 +2°C° 0 mm 1 mps 618 mmHg 83%
    02:00 +1°C° 0 mm 1 mps 618 mmHg 81%
    03:00 +1°C° 0 mm 1 mps 618 mmHg 78%
    04:00 +2°C° 0 mm 1 mps 618 mmHg 76%
    05:00 +2°C° 0 mm 1 mps 618 mmHg 74%
    06:00 +2°C° 0 mm 1 mps 618 mmHg 72%
    07:00 +3°C° 0 mm 1 mps 619 mmHg 71%
    08:00 +4°C° 0 mm 1 mps 619 mmHg 70%
    09:00 +5°C° 0 mm 1 mps 620 mmHg 69%
    10:00 +6°C° 0 mm 1 mps 620 mmHg 69%
    11:00 +6°C° 0 mm 2 mps 620 mmHg 69%
    12:00 +7°C° 0 mm 2 mps 620 mmHg 69%
    13:00 +6°C° 0 mm 2 mps 620 mmHg 71%
    14:00 +6°C° 0 mm 2 mps 619 mmHg 74%
    15:00 +5°C° 0 mm 2 mps 619 mmHg 76%
    16:00 +4°C° 0 mm 2 mps 618 mmHg 78%
    17:00 +2°C° 0 mm 2 mps 618 mmHg 80%
    18:00 +1°C° 0 mm 2 mps 617 mmHg 82%
    19:00 +1°C° 0 mm 2 mps 617 mmHg 80%
    20:00 +1°C° 0 mm 2 mps 617 mmHg 77%
    21:00 +1°C° 0 mm 2 mps 617 mmHg 75%
    22:00 +1°C° 0 mm 2 mps 617 mmHg 74%
    23:00 +1°C° 0 mm 2 mps 617 mmHg 74%

    Tomorrow, 16 December, Monday

    Time Temperature Precipitation Wind Pressure Humidity
    00:00 +1°C° 0 mm 2 mps 616 mmHg 73%
    01:00 +1°C° 0 mm 2 mps 616 mmHg 75%
    02:00 0°C° 0 mm 3 mps 616 mmHg 77%
    03:00 0°C° 0 mm 3 mps 616 mmHg 79%
    04:00 0°C° 0 mm 3 mps 616 mmHg 80%
    05:00 0°C° 0 mm 3 mps 616 mmHg 80%
    06:00 0°C° 0 mm 3 mps 615 mmHg 80%
    07:00 +1°C° 0 mm 3 mps 615 mmHg 79%
    08:00 +2°C° 0 mm 3 mps 616 mmHg 78%
    09:00 +2°C° 0 mm 3 mps 616 mmHg 76%
    10:00 +3°C° 0 mm 4 mps 616 mmHg 75%
    11:00 +4°C° 0 mm 4 mps 616 mmHg 73%
    12:00 +5°C° 0 mm 4 mps 616 mmHg 72%
    13:00 +5°C° 0 mm 4 mps 615 mmHg 76%
    14:00 +4°C° 0 mm 4 mps 614 mmHg 81%
    15:00 +4°C° 0 mm 4 mps 614 mmHg 85%
    16:00 +3°C° 0 mm 4 mps 613 mmHg 86%
    17:00 +3°C° 0 mm 4 mps 613 mmHg 86%
    18:00 +1°C° 0 mm 4 mps 612 mmHg 87%
    19:00 +1°C° 0 mm 4 mps 612 mmHg 86%
    20:00 0°C° 0 mm 4 mps 612 mmHg 86%
    21:00 0°C° 0 mm 4 mps 612 mmHg 85%
    22:00 +1°C° 0 mm 3 mps 612 mmHg 85%
    23:00 0°C° 0 mm 3 mps 612 mmHg 84%

    Day after tomorrow, 17 December, Tuesday

    Time Temperature Precipitation Wind Pressure Humidity
    00:00 0°C° 0 mm 3 mps 611 mmHg 84%
    01:00 0°C° 0 mm 3 mps 611 mmHg 85%
    02:00 0°C° 0 mm 3 mps 611 mmHg 86%
    03:00 0°C° 0 mm 3 mps 611 mmHg 86%
    04:00 0°C° 0 mm 3 mps 611 mmHg 88%
    05:00 +1°C° 0 mm 3 mps 611 mmHg 90%
    06:00 +1°C° 0 mm 3 mps 611 mmHg 92%
    07:00 +1°C° 0.1 mm 3 mps 611 mmHg 91%
    08:00 +2°C° 0.1 mm 3 mps 612 mmHg 90%
    09:00 +2°C° 0.1 mm 3 mps 612 mmHg 90%
    10:00 +3°C° 0.8 mm 3 mps 613 mmHg 89%
    11:00 +3°C° 0.8 mm 3 mps 613 mmHg 89%
    12:00 +3°C° 0.8 mm 3 mps 613 mmHg 88%
    13:00 +2°C° 0.9 mm 3 mps 613 mmHg 90%
    14:00 +3°C° 0.9 mm 2 mps 614 mmHg 92%
    15:00 +3°C° 0.9 mm 2 mps 614 mmHg 94%
    16:00 +2°C° 0.9 mm 2 mps 614 mmHg 95%
    17:00 +3°C° 0.9 mm 1 mps 615 mmHg 96%
    18:00 +3°C° 0.9 mm 1 mps 615 mmHg 97%
    19:00 +3°C° 0.2 mm 1 mps 616 mmHg 97%
    20:00 +3°C° 0.2 mm 1 mps 616 mmHg 97%
    21:00 +2°C° 0.2 mm 1 mps 616 mmHg 96%
    22:00 +2°C° 0.5 mm 1 mps 616 mmHg 97%
    23:00 +2°C° 0.5 mm 1 mps 616 mmHg 97%

    18 December, Wednesday

    Time Temperature Precipitation Wind Pressure Humidity
    00:00 +2°C° 0.5 mm 1 mps 616 mmHg 97%
    01:00 +2°C° 0.3 mm 1 mps 617 mmHg 97%
    02:00 +2°C° 0.3 mm 1 mps 617 mmHg 97%
    03:00 +2°C° 0.3 mm 1 mps 617 mmHg 97%
    04:00 +2°C° 0.3 mm 1 mps 617 mmHg 96%
    05:00 +2°C° 0.3 mm 1 mps 617 mmHg 96%
    06:00 +2°C° 0.3 mm 1 mps 617 mmHg 96%
    07:00 +2°C° 0 mm 1 mps 618 mmHg 94%
    08:00 +3°C° 0 mm 1 mps 618 mmHg 93%
    09:00 +3°C° 0 mm 1 mps 618 mmHg 91%
    10:00 +4°C° 0 mm 1 mps 618 mmHg 88%
    11:00 +5°C° 0 mm 1 mps 619 mmHg 86%
    12:00 +5°C° 0 mm 2 mps 619 mmHg 84%
    13:00 +5°C° 0 mm 2 mps 619 mmHg 85%
    14:00 +4°C° 0 mm 2 mps 619 mmHg 86%
    15:00 +4°C° 0 mm 2 mps 618 mmHg 87%
    16:00 +3°C° 0 mm 2 mps 618 mmHg 89%
    17:00 +3°C° 0 mm 1 mps 617 mmHg 91%
    18:00 +1°C° 0 mm 1 mps 617 mmHg 93%
    19:00 +1°C° 0 mm 1 mps 617 mmHg 92%
    20:00 +1°C° 0 mm 1 mps 617 mmHg 90%
    21:00 -2°C° 0 mm 2 mps 617 mmHg 89%
    22:00 -2°C° 0 mm 2 mps 617 mmHg 89%
    23:00 -2°C° 0 mm 2 mps 617 mmHg 89%

    19 December, Thursday

    Time Temperature Precipitation Wind Pressure Humidity
    00:00 -2°C° 0 mm 2 mps 617 mmHg 89%
    01:00 -1°C° 0 mm 2 mps 617 mmHg 89%
    02:00 -1°C° 0 mm 2 mps 616 mmHg 89%
    03:00 -1°C° 0 mm 2 mps 616 mmHg 89%
    04:00 +1°C° 0.2 mm 2 mps 616 mmHg 90%
    05:00 +2°C° 0.2 mm 2 mps 616 mmHg 92%
    06:00 +2°C° 0.2 mm 2 mps 616 mmHg 94%
    07:00 +2°C° 1.9 mm 2 mps 616 mmHg 94%
    08:00 +2°C° 1.9 mm 2 mps 616 mmHg 95%
    09:00 +2°C° 1.9 mm 2 mps 615 mmHg 95%
    10:00 +1°C° 1.1 mm 3 mps 615 mmHg 95%
    11:00 +2°C° 1.1 mm 3 mps 615 mmHg 95%
    12:00 +1°C° 1.1 mm 4 mps 614 mmHg 94%
    13:00 +2°C° 1.2 mm 3 mps 614 mmHg 95%
    14:00 +2°C° 1.2 mm 3 mps 614 mmHg 96%
    15:00 +1°C° 1.2 mm 3 mps 613 mmHg 96%
    16:00 +1°C° 0.5 mm 2 mps 613 mmHg 96%
    17:00 -1°C° 0.5 mm 2 mps 613 mmHg 96%
    18:00 -2°C° 0.5 mm 2 mps 613 mmHg 96%
    19:00 -2°C° 0 mm 2 mps 613 mmHg 95%
    20:00 -2°C° 0 mm 2 mps 613 mmHg 94%
    21:00 -3°C° 0 mm 2 mps 613 mmHg 94%
    22:00 -3°C° 0 mm 2 mps 612 mmHg 93%
    23:00 -4°C° 0 mm 3 mps 612 mmHg 93%

    20 December, Friday

    Time Temperature Precipitation Wind Pressure Humidity
    00:00 -4°C° 0 mm 3 mps 612 mmHg 92%
    01:00 -4°C° 1.2 mm 3 mps 610 mmHg 93%
    02:00 -2°C° 1.2 mm 3 mps 609 mmHg 94%
    03:00 -3°C° 1.2 mm 4 mps 608 mmHg 94%
    04:00 -2°C° 3.8 mm 4 mps 607 mmHg 95%
    05:00 -1°C° 3.8 mm 3 mps 606 mmHg 96%
    06:00 0°C° 3.8 mm 3 mps 605 mmHg 96%
    07:00 0°C° 0.6 mm 3 mps 605 mmHg 96%
    08:00 +1°C° 0.6 mm 3 mps 605 mmHg 96%
    09:00 +1°C° 0.6 mm 3 mps 605 mmHg 96%
    10:00 +2°C° 0.1 mm 2 mps 606 mmHg 97%
    11:00 +2°C° 0.1 mm 2 mps 606 mmHg 97%
    12:00 +3°C° 0.1 mm 1 mps 606 mmHg 97%
    13:00 +2°C° 0.1 mm 2 mps 606 mmHg 96%
    14:00 +2°C° 0.1 mm 2 mps 607 mmHg 95%
    15:00 +2°C° 0.1 mm 2 mps 608 mmHg 94%
    16:00 +1°C° 0 mm 2 mps 608 mmHg 94%
    17:00 -2°C° 0 mm 3 mps 608 mmHg 94%
    18:00 -4°C° 0 mm 3 mps 609 mmHg 93%
    19:00 -4°C° 0.1 mm 3 mps 609 mmHg 93%
    20:00 -4°C° 0.1 mm 3 mps 610 mmHg 93%
    21:00 -4°C° 0.1 mm 3 mps 611 mmHg 93%
    22:00 -4°C° 0.2 mm 3 mps 611 mmHg 93%
    23:00 -3°C° 0.2 mm 2 mps 612 mmHg 93%
    Show more